Location: Carri�res
(48.9069°N, 2.1792°E)
Time: 19:27:21
(UTC+00:00)

Cosmos 2227 Rocket - Pass Details

Date: 17 January 2021
Orbit: 837 x 846 km, 71.0° (Epoch: 02 March)

Event Time Altitude Azimuth Distance (km) Brightness Sun altitude
Rises 17:01:58 0° 226° (SW) 3,387 7.0 -6.1°
Reaches altitude 10° 17:04:29 10° 232° (SW) 2,458 6.2 -6.5°
Maximum altitude 17:09:55 47° 306° (NW) 1,108 3.1 -7.3°
Drops below altitude 10° 17:15:24 10° 20° (NNE) 2,477 4.2 -8.2°
Enters shadow 17:17:44 - 26° (NNE) 3,332 4.9 -8.5°
